Location: Washington
(38.8950°N, 77.0370°W)
Time: 02:45:50
(UTC-04:00)

Daily predictions for brighter satellites

Satellite Brightness Start Highest point End
(mag) Time Altitude Azimuth Time Altitude Azimuth Time Altitude Azimuth
SL-16 R/B 4.0 00:26:09 27° NNW 00:26:09 27° NNW 00:29:13 10° N
Cosmos 2360 Rocket 4.2 00:48:09 23° N 00:48:09 23° N 00:50:18 10° NNE
Cosmos 2237 Rocket 4.5 01:25:03 18° NE 01:25:03 18° NE 01:26:32 10° NE
ATLAS 3B R/B 3.9 01:39:04 38° ENE 01:39:04 38° ENE 01:43:36 10° NE
Cosmos 2278 Rocket 4.2 01:51:06 10° NNW 01:53:14 24° NNW 01:53:14 24° NNW
COSMOS 2455 4.3 02:07:19 33° NNE 02:07:19 33° NNE 02:10:32 10° NNE
CZ-3A R/B 4.1 02:26:06 54° NW 02:26:25 54° NW 02:31:17 10° NE
USA 234 4.3 02:23:05 10° NE 02:27:15 36° E 02:27:15 36° E
CZ-2D R/B 4.3 02:43:43 10° NE 02:46:59 17° E 02:46:59 17° E
Cosmos 2219 Rocket 4.1 02:53:37 20° NNW 02:53:37 20° NNW 02:56:26 10° N
Cosmos 2333 Rocket 3.9 02:57:45 25° NNW 02:57:45 25° NNW 03:01:08 10° N
SL-16 R/B 3.2 03:00:03 42° N 03:00:03 42° N 03:03:50 10° NNE
Cosmos 2237 Rocket 3.9 03:06:52 25° NNW 03:06:52 25° NNW 03:10:15 10° N
BREEZE-M DEB (TANK) 4.0 03:20:28 65° WSW 03:21:39 78° NW 03:26:05 10° NE
ADEOS 4.1 03:20:53 10° NNE 03:24:58 56° NNE 03:24:58 56° NNE
ATLAS 3B R/B 3.8 03:26:18 34° WNW 03:27:21 35° NW 03:34:03 10° NNE
Cosmos 1867 4.3 03:29:33 48° NNW 03:29:33 48° NNW 03:33:52 10° NNE
IRS-1D 4.1 03:25:11 10° NNE 03:29:55 53° E 03:29:55 53° E
Resurs 1-4 Rocket 2.8 03:27:16 10° NNE 03:32:21 47° E 03:32:24 47° E
ATLAS CENTAUR R/B 4.2 03:31:47 10° N 03:34:47 18° NE 03:37:36 10° E
ERS-2 4.4 03:34:19 10° NNE 03:35:50 23° NNE 03:35:50 23° NNE
Cosmos 1603 3.7 03:40:49 75° N 03:40:49 75° N 03:46:07 10° NNE
CZ-4C R/B 2.6 03:41:23 52° NNW 03:41:23 52° NNW 03:46:44 10° NNE
Cosmos 1607 4.4 03:41:28 45° NW 03:41:28 45° NW 03:47:16 10° NNE
Meteor 2-3 Rocket 4.4 03:38:30 10° N 03:44:07 51° ENE 03:46:49 29° SE
ARIANE 5 R/B 2.6 03:40:56 10° NNE 03:45:54 78° NE 03:45:54 78° NE
ATLAS 5 CENTAUR R/B 3.8 03:45:51 18° SE 03:46:47 19° ESE 03:50:13 10° ENE
In-Cosmos 22 Rocket 4.2 03:46:46 10° N 03:52:04 70° E 03:52:51 60° SE
Okean O Rocket 3.6 03:52:55 10° NE 03:56:33 24° E 03:58:24 19° SE
Cosmos 1892 4.3 03:58:30 10° NNE 04:02:01 33° ENE 04:02:55 29° ESE
SL-16 R/B 2.4 04:03:00 55° S 04:04:27 77° WSW 04:10:40 10° NNW
USA 234 3.7 04:06:06 10° NE 04:12:21 49° NW 04:14:35 36° W
CZ-3 R/B 4.4 03:09:58 10° W 04:12:26 60° SSW 04:25:30 10° SE
Cosmos 1943 3.2 04:12:12 55° S 04:13:29 79° ESE 04:19:10 10° NNE
ERBS 4.4 04:14:53 23° NNW 04:14:53 23° NNW 04:16:58 10° NNE
Cosmos 2251 Rocket 3.3 04:14:04 69° SW 04:14:39 79° WNW 04:19:56 10° NNE
S3M 4.5 04:15:52 39° W 04:16:03 39° WNW 04:21:54 10° N
SeaSat 1 2.8 04:12:07 10° SE 04:16:59 65° ENE 04:21:53 10° NNW
UNK 4.2 04:19:52 47° WNW 04:19:52 47° WNW 04:23:31 10° NNW
Cosmos 1300 4.5 04:22:33 22° NNW 04:22:33 22° NNW 04:24:21 10° NNW
Meteor 2-10 4.2 04:20:38 39° S 04:22:49 81° E 04:28:19 10° NNE
Cosmos 1110 Rocket 3.8 04:20:50 10° NNW 04:26:02 75° WSW 04:28:45 29° S
Cosmos 2369 Rocket 2.2 04:21:19 10° NNW 04:26:57 79° ENE 04:32:34 10° SSE
CZ-2D R/B 2.2 04:22:23 10° N 04:27:32 54° WNW 04:28:18 49° WSW
CZ-4B R/B 4.1 04:22:38 10° NNE 04:27:42 44° E 04:31:58 14° SSE
Cosmos 2292 Rocket 3.7 04:24:48 10° N 04:26:58 44° NNE 04:26:58 44° NNE
Cosmos 1726 3.9 04:29:42 22° NW 04:29:42 22° NW 04:31:32 10° NNW
Cosmos 2242 Rocket 3.5 04:28:23 63° SSW 04:29:04 78° W 04:33:40 10° N
NOSS 3-2 (A) 3.9 04:28:40 39° W 04:30:28 50° NW 04:36:56 10° NNE
CZ-2D R/B 3.4 04:26:18 10° N 04:30:45 86° WNW 04:31:34 58° SSW
BREEZE-M DEB (TANK) 4.4 04:34:26 25° S 04:34:26 25° S 04:38:59 10° SSE
Cosmos 1455 2.3 04:33:30 52° SSE 04:34:20 74° E 04:38:14 10° N
Meteor 2-11 Rocket 4.4 04:32:34 25° S 04:36:18 88° E 04:42:25 10° N
NOSS 3-3 (A) 4.4 04:32:48 10° NW 04:40:17 71° WSW 04:48:11 10° SSE
NOSS 3-3 (C) 4.4 04:32:54 10° NW 04:40:24 72° WSW 04:48:19 10° SSE
SL-16 R/B 4.4 04:41:56 10° WNW 04:43:20 11° NW 04:44:56 10° NNW
Cosmos 1709 Rocket 4.0 04:38:12 10° NNW 04:44:30 68° W 04:50:07 13° S
NOSS 3-2 (C) 3.9 04:42:57 33° WSW 04:45:23 49° NW 04:51:51 10° NNE
PAYLOAD B 4.4 04:41:22 10° NNE 04:46:55 72° ESE 04:51:32 15° S
CZ-4B R/B 3.2 04:44:55 10° NNE 04:48:31 57° E 04:50:41 22° S
Cosmos 1862 Rocket 3.5 04:47:14 26° S 04:49:36 83° E 04:54:00 10° N
Cosmos 839 Rocket 4.3 04:45:55 10° NW 04:53:42 58° WSW 05:00:03 10° S
Cosmos 2263 4.2 04:48:08 10° NNW 04:53:57 87° WSW 04:59:44 10° SSE
CENTAUR R/B 3.0 04:50:51 16° S 04:55:32 55° ESE 05:02:03 10° NE
Cosmos 1943 Rocket 2.7 04:55:51 10° NNW 05:01:30 64° ENE 05:07:05 10° SSE
ADEOS Rocket 4.2 04:54:26 10° NNE 05:02:01 56° E 05:09:34 10° S
Cosmos 1933 4.1 04:59:31 10° S 05:03:32 54° E 05:07:33 10° NNE
Cosmos 2074 Rocket 4.1 04:59:09 10° N 05:05:23 78° E 05:11:36 10° S
Cosmos 2184 Rocket 4.2 04:59:32 10° N 05:05:57 76° E 05:12:17 10° SSE
UNKNOWN OBJECT B 4.1 05:03:41 10° NNW 05:06:31 21° WNW 05:06:33 21° WNW
Cosmos 1869 3.4 05:06:12 27° SSW 05:08:07 55° W 05:12:03 10° N
Cosmos 389 Rocket 2.3 05:08:00 24° SSW 05:09:56 76° W 05:13:27 10° N
ARGOS Delta rocket 4.1 05:06:11 10° N 05:10:20 41° WNW 05:12:24 25° SW
Resurs 1-4 Rocket 3.5 05:07:58 10° NNW 05:11:49 21° WNW 05:13:28 18° W
ATLAS CENTAUR R/B 1.5 05:10:06 10° NW 05:14:11 47° WSW 05:17:56 10° S
Cosmos 1825 2.7 05:13:11 10° N 05:16:58 62° E 05:20:42 10° SSE
Cosmos 1302 Rocket 4.1 05:11:56 10° NNW 05:17:00 50° WSW 05:22:00 10° S
Atlas Centaur 2 4.2 05:17:23 10° SSE 05:19:05 12° SSE 05:20:54 10° SE
Cosmos 1733 Rocket 3.4 05:15:30 10° NNW 05:19:37 41° W 05:23:44 10° SSW
Cosmos 1782 Rocket 4.5 05:20:09 10° N 05:24:24 51° E 05:28:37 10° SSE
ARIANE 5 R/B 4.5 05:22:26 10° NW 05:24:35 13° WNW 05:26:14 11° W
Cosmos 1408 2.6 05:24:50 10° N 05:28:35 89° E 05:32:19 10° S
BREEZE-M DEB (TANK) 4.1 05:25:07 10° WNW 05:29:15 79° SW 05:41:13 10° SE
NAVSTAR 52 R/B(PAM-D 2.8 05:29:31 44° SSW 05:29:44 48° SSE 05:31:21 10° E
ATLAS 5 CENTAUR R/B 2.2 05:27:26 17° WSW 05:30:56 50° NW 05:36:01 10° NNE
CZ-4C R/B 4.4 05:28:28 10° NW 05:31:00 13° NNW 05:33:39 10° N
ADEOS II 2.3 05:26:52 10° NNE 05:32:09 77° ESE 05:37:24 10° S
Okean-O 2.6 05:28:08 10° NNE 05:32:35 88° E 05:37:01 10° SSW
Okean O Rocket 2.6 05:29:03 10° N 05:32:54 29° WNW 05:35:51 15° WSW
Cosmos 2285 Rocket 4.2 05:26:43 10° NNW 05:33:12 81° ENE 05:39:34 10° SSE
Cosmos 2221 Rocket 3.6 05:29:05 10° S 05:33:32 87° E 05:37:59 10° N
Cosmos 1892 4.5 05:35:26 10° NW 05:37:27 14° W 05:37:56 14° W
Cosmos 1656 Rocket 4.3 05:33:45 10° NNW 05:39:07 60° ENE 05:44:27 10° SE
PSLV R/B 3.7 05:39:06 12° W 05:42:14 57° N 05:45:35 10° ENE
Cosmos 1908 Rocket 3.7 05:41:08 10° NNW 05:45:23 49° W 05:49:34 10° SSW
Geosat 4.3 05:40:40 10° NNE 05:45:31 50° WNW 05:50:21 10° SW
COSMOS 2406 3.2 05:41:00 10° SSW 05:46:46 76° WNW 05:52:34 10° NNE
Thor Agena Rocket 3.9 05:42:11 10° S 05:47:00 42° W 05:51:54 10° NNW
Cosmos 1184 Rocket 4.3 05:45:00 10° NW 05:47:34 20° W 05:50:07 10° SW
Sich 1 Rocket 4.1 05:44:39 10° NNW 05:48:40 36° W 05:52:41 10° SSW
BREEZE-M DEB (TANK) 2.0 05:46:56 10° NW 05:49:07 81° NE 05:52:29 10° ESE
SeaSat 1 4.0 05:52:07 10° SW 05:54:52 15° WSW 05:57:37 10° WNW
Cosmos 1190 Rocket 4.0 05:54:57 10° SSW 06:00:08 89° WNW 06:05:22 10° NNE
Cosmos 1174 4.5 05:54:55 10° SW 06:00:41 69° WNW 06:05:15 10° NNE
USA 32 4.4 05:56:15 10° SSW 06:01:13 44° W 06:06:13 10° N
Cosmos 1703 Rocket 4.1 05:57:15 10° SSW 06:01:27 40° WNW 06:05:41 10° N
